Dayton, OH

5:15 PM EST on February 19, 2017 (GMT -0500)
Wright-Patterson Air Force Base

Weather History for KFFO - March, 2013

Change the Weather History Date:

Sunday, March 17, 2013

  Actual Average Record
Temperature  
Mean Temperature 34 °F -  
Max Temperature 38 °F 47 °F 73 °F (2012)
Min Temperature 32 °F 27 °F 19 °F (2014)
Degree Days  
Heating Degree Days 30    
Moisture  
Dew Point 25 °F    
Average Humidity 70    
Maximum Humidity 80    
Minimum Humidity 62    
Precipitation  
Precipitation 0.00 in - - ()
Sea Level Pressure  
Sea Level Pressure 30.12 in    
Wind  
Wind Speed 9 mph (NE)    
Max Wind Speed 14 mph    
Max Gust Speed -    
Visibility 10 miles    
Events      
Averages and records for this station are not official NWS values.
T = Trace of Precipitation, MM = Missing Value Source: NWS Daily Summary

Daily Weather History Graph

Daily Weather History Graph

Search for Another Location

Airport or City:

Trip Planner

Search our weather history database for the weather conditions in past years. The results will help you decide how hot, cold, wet, or windy it might be!

Date:

Astronomy

Mar. 17, 2013 Rise Set
Actual Time 7:44 AM EDT 7:45 PM EDT
Civil Twilight 7:17 AM EDT 8:12 PM EDT
Nautical Twilight 6:45 AM EDT 8:43 PM EDT
Astronomical Twilight 6:13 AM EDT 9:15 PM EDT
Moon 10:56 AM EDT (3/17) 12:51 AM EDT (3/17)
Length of Visible Light 12h 55m
Length of Day
12h 01m
Waxing Crescent, 31% of the Moon is Illuminated
Mar 17
Waxing Crescent
Mar 19
First Quarter
Mar 27
Full
Apr 3
Last Quarter
Apr 10
New

Hourly Weather History & Observations

Time (EDT) Temp. Windchill Dew Point Humidity Pressure Visibility Wind Dir Wind Speed Gust Speed Precip Events Conditions
12:55 AM 33.6 °F 27.5 °F 28.0 °F 80% 30.05 in 10.0 mi North 6.9 mph - N/A   Overcast
1:55 AM 33.4 °F 28.1 °F 27.7 °F 79% 30.06 in 10.0 mi North 5.8 mph - N/A   Overcast
2:55 AM 33.4 °F 26.6 °F 27.3 °F 78% 30.06 in 10.0 mi North 8.1 mph - N/A   Overcast
3:55 AM 33.3 °F 25.7 °F 26.4 °F 76% 30.07 in 10.0 mi North 9.2 mph - N/A   Overcast
4:46 AM 33.8 °F 26.4 °F 26.6 °F 75% 30.07 in 10.0 mi North 9.2 mph - N/A   Overcast
4:55 AM 33.3 °F 25.7 °F 26.2 °F 75% 30.08 in 10.0 mi North 9.2 mph - N/A   Overcast
5:55 AM 33.1 °F 23.9 °F 26.4 °F 77% 30.07 in 10.0 mi North 12.7 mph - N/A   Overcast
6:55 AM 32.9 °F 24.7 °F 26.6 °F 78% 30.13 in 10.0 mi NNE 10.4 mph - N/A   Overcast
7:55 AM 32.5 °F 26.2 °F 25.3 °F 75% 30.16 in 10.0 mi North 6.9 mph - N/A   Overcast
8:31 AM 32.0 °F 23.6 °F 24.8 °F 75% 30.17 in 10.0 mi NNE 10.4 mph - N/A   Overcast
8:55 AM 32.4 °F 25.3 °F 23.5 °F 70% 30.18 in 10.0 mi NE 8.1 mph - N/A   Mostly Cloudy
9:52 AM 33.8 °F 25.8 °F 23.0 °F 65% 30.19 in 10.0 mi NE 10.4 mph - N/A   Mostly Cloudy
10:55 AM 33.6 °F 24.1 °F 23.2 °F 66% 30.17 in 10.0 mi NNE 13.8 mph - N/A   Mostly Cloudy
11:06 AM 33.8 °F 25.8 °F 23.0 °F 65% 30.17 in 10.0 mi NNE 10.4 mph - N/A   Mostly Cloudy
11:55 AM 32.5 °F 23.7 °F 24.1 °F 71% 30.19 in 10.0 mi NNE 11.5 mph - N/A   Overcast
12:55 PM 33.4 °F 25.4 °F 23.7 °F 68% 30.19 in 10.0 mi NE 10.4 mph - N/A   Overcast
1:55 PM 34.9 °F 27.7 °F 23.7 °F 64% 30.17 in 10.0 mi ENE 9.2 mph - N/A   Overcast
2:55 PM 36.1 °F 28.2 °F 24.4 °F 63% 30.15 in 10.0 mi NE 11.5 mph - N/A   Overcast
3:55 PM 36.7 °F 29.4 °F 25.0 °F 63% 30.14 in 10.0 mi ENE 10.4 mph - N/A   Overcast
4:55 PM 37.6 °F 31.6 °F 25.5 °F 62% 30.13 in 10.0 mi ENE 8.1 mph - N/A   Overcast
5:55 PM 37.6 °F 29.6 °F 25.7 °F 62% 30.12 in 10.0 mi ENE 12.7 mph - N/A   Overcast
6:55 PM 36.9 °F 28.2 °F 26.2 °F 65% 30.10 in 10.0 mi ENE 13.8 mph - N/A   Overcast
7:55 PM 36.0 °F 28.0 °F 25.7 °F 66% 30.12 in 10.0 mi NE 11.5 mph - N/A   Overcast
8:55 PM 35.4 °F 28.4 °F 25.7 °F 68% 30.11 in 10.0 mi ENE 9.2 mph - N/A   Overcast
9:55 PM 35.6 °F 28.0 °F 25.5 °F 67% 30.10 in 10.0 mi ENE 10.4 mph - N/A   Overcast
10:55 PM 35.2 °F 27.6 °F 25.5 °F 68% 30.08 in 10.0 mi NE 10.4 mph - N/A   Overcast
11:40 PM 35.6 °F 27.5 °F 24.8 °F 65% 30.07 in 10.0 mi ENE 11.5 mph - N/A   Overcast
11:55 PM 35.1 °F 26.9 °F 25.5 °F 68% 30.06 in 10.0 mi ENE 11.5 mph - N/A   Overcast